• In Russia
  • List of Countries
  • For 7 days
  • Water Temperature
  • Satellite Maps
  • Weather Map
  • Weather Widgets
  • user-avatar
    Login

    Hourly Weather Annaba

    Today, 23 October, Monday

    Time Temperature Precipitation Wind Pressure Humidity
    00:00 +20°C° 0.3 mm 4 mps 765 mmHg 86%
    01:00 +20°C° 0 mm 3 mps 765 mmHg 87%
    02:00 +19°C° 0.4 mm 4 mps 764 mmHg 87%
    03:00 +19°C° 0.4 mm 4 mps 764 mmHg 88%
    04:00 +19°C° 0.4 mm 5 mps 764 mmHg 89%
    05:00 +19°C° 0.2 mm 5 mps 764 mmHg 87%
    06:00 +19°C° 0.2 mm 5 mps 764 mmHg 85%
    07:00 +19°C° 0 mm 5 mps 764 mmHg 83%
    08:00 +20°C° 0.2 mm 5 mps 764 mmHg 79%
    09:00 +20°C° 0.2 mm 6 mps 764 mmHg 75%
    10:00 +21°C° 0.2 mm 6 mps 764 mmHg 71%
    11:00 +21°C° 0.2 mm 7 mps 764 mmHg 68%
    12:00 +22°C° 0.2 mm 7 mps 764 mmHg 64%
    13:00 +22°C° 0.2 mm 8 mps 764 mmHg 61%
    14:00 +22°C° 0.1 mm 8 mps 764 mmHg 61%
    15:00 +22°C° 0.1 mm 8 mps 764 mmHg 62%
    16:00 +22°C° 0.1 mm 8 mps 764 mmHg 63%
    17:00 +21°C° 0 mm 8 mps 764 mmHg 67%
    18:00 +20°C° 0 mm 7 mps 764 mmHg 71%
    19:00 +18°C° 0 mm 7 mps 764 mmHg 75%
    20:00 +18°C° 0.1 mm 7 mps 764 mmHg 76%
    21:00 +18°C° 0.1 mm 7 mps 764 mmHg 77%
    22:00 +17°C° 0.1 mm 7 mps 764 mmHg 78%
    23:00 +17°C° 0.2 mm 7 mps 764 mmHg 80%

    Tomorrow, 24 October, Tuesday

    Time Temperature Precipitation Wind Pressure Humidity
    00:00 +17°C° 0.2 mm 7 mps 764 mmHg 82%
    01:00 +17°C° 0.2 mm 7 mps 764 mmHg 83%
    02:00 +17°C° 0.3 mm 7 mps 764 mmHg 83%
    03:00 +17°C° 0.3 mm 7 mps 764 mmHg 83%
    04:00 +17°C° 0.3 mm 7 mps 763 mmHg 82%
    05:00 +17°C° 0.3 mm 7 mps 764 mmHg 82%
    06:00 +18°C° 0.3 mm 7 mps 764 mmHg 82%
    07:00 +18°C° 0.3 mm 7 mps 764 mmHg 82%
    08:00 +18°C° 0.3 mm 7 mps 764 mmHg 81%
    09:00 +18°C° 0.3 mm 7 mps 764 mmHg 80%
    10:00 +20°C° 0.3 mm 7 mps 765 mmHg 78%
    11:00 +20°C° 0.2 mm 6 mps 765 mmHg 78%
    12:00 +20°C° 0.2 mm 6 mps 765 mmHg 77%
    13:00 +20°C° 0.2 mm 6 mps 765 mmHg 76%
    14:00 +20°C° 0.2 mm 5 mps 765 mmHg 77%
    15:00 +20°C° 0.2 mm 5 mps 764 mmHg 77%
    16:00 +20°C° 0.2 mm 5 mps 764 mmHg 77%
    17:00 +20°C° 0.1 mm 4 mps 764 mmHg 79%
    18:00 +19°C° 0.1 mm 4 mps 765 mmHg 82%
    19:00 +19°C° 0.1 mm 3 mps 765 mmHg 84%
    20:00 +19°C° 0.1 mm 3 mps 765 mmHg 85%
    21:00 +19°C° 0.1 mm 3 mps 765 mmHg 85%
    22:00 +18°C° 0.1 mm 3 mps 766 mmHg 86%
    23:00 +18°C° 0 mm 3 mps 766 mmHg 87%

    Day after tomorrow, 25 October, Wednesday

    Time Temperature Precipitation Wind Pressure Humidity
    00:00 +18°C° 0 mm 3 mps 766 mmHg 87%
    01:00 +18°C° 0 mm 3 mps 766 mmHg 87%
    02:00 +18°C° 0 mm 3 mps 766 mmHg 87%
    03:00 +18°C° 0 mm 3 mps 766 mmHg 87%
    04:00 +18°C° 0 mm 3 mps 766 mmHg 87%
    05:00 +18°C° 0 mm 3 mps 766 mmHg 87%
    06:00 +18°C° 0 mm 3 mps 766 mmHg 87%
    07:00 +17°C° 0 mm 3 mps 766 mmHg 87%
    08:00 +19°C° 0 mm 3 mps 766 mmHg 81%
    09:00 +20°C° 0 mm 3 mps 767 mmHg 74%
    10:00 +21°C° 0 mm 3 mps 767 mmHg 68%
    11:00 +22°C° 0 mm 3 mps 767 mmHg 63%
    12:00 +24°C° 0 mm 3 mps 767 mmHg 59%
    13:00 +25°C° 0 mm 3 mps 766 mmHg 54%
    14:00 +24°C° 0 mm 3 mps 766 mmHg 55%
    15:00 +24°C° 0 mm 3 mps 766 mmHg 55%
    16:00 +24°C° 0 mm 3 mps 766 mmHg 56%
    17:00 +23°C° 0 mm 2 mps 767 mmHg 62%
    18:00 +21°C° 0 mm 2 mps 767 mmHg 69%
    19:00 +20°C° 0 mm 1 mps 767 mmHg 75%
    20:00 +20°C° 0 mm 1 mps 768 mmHg 77%
    21:00 +19°C° 0 mm 1 mps 768 mmHg 79%
    22:00 +19°C° 0 mm 1 mps 768 mmHg 81%
    23:00 +19°C° 0 mm 1 mps 768 mmHg 81%

    26 October, Thursday

    Time Temperature Precipitation Wind Pressure Humidity
    00:00 +19°C° 0 mm 1 mps 768 mmHg 81%
    01:00 +18°C° 0 mm 1 mps 768 mmHg 80%
    02:00 +18°C° 0 mm 1 mps 768 mmHg 78%
    03:00 +18°C° 0 mm 1 mps 768 mmHg 76%
    04:00 +17°C° 0 mm 2 mps 768 mmHg 74%
    05:00 +17°C° 0 mm 2 mps 768 mmHg 72%
    06:00 +16°C° 0 mm 2 mps 768 mmHg 69%
    07:00 +16°C° 0 mm 2 mps 768 mmHg 66%
    08:00 +19°C° 0 mm 1 mps 769 mmHg 58%
    09:00 +22°C° 0 mm 1 mps 769 mmHg 49%
    10:00 +24°C° 0 mm 1 mps 769 mmHg 41%
    11:00 +25°C° 0 mm 1 mps 769 mmHg 37%
    12:00 +26°C° 0 mm 1 mps 768 mmHg 33%
    13:00 +27°C° 0 mm 1 mps 768 mmHg 28%
    14:00 +27°C° 0 mm 2 mps 768 mmHg 31%
    15:00 +27°C° 0 mm 2 mps 768 mmHg 34%
    16:00 +26°C° 0 mm 3 mps 768 mmHg 36%
    17:00 +25°C° 0 mm 2 mps 768 mmHg 44%
    18:00 +23°C° 0 mm 2 mps 768 mmHg 52%
    19:00 +20°C° 0 mm 2 mps 768 mmHg 60%
    20:00 +20°C° 0 mm 2 mps 768 mmHg 60%
    21:00 +20°C° 0 mm 2 mps 768 mmHg 60%
    22:00 +19°C° 0 mm 2 mps 769 mmHg 61%
    23:00 +19°C° 0 mm 2 mps 768 mmHg 59%

    27 October, Friday

    Time Temperature Precipitation Wind Pressure Humidity
    00:00 +20°C° 0 mm 1 mps 768 mmHg 58%
    01:00 +20°C° 0 mm 1 mps 768 mmHg 56%
    02:00 +20°C° 0 mm 1 mps 768 mmHg 54%
    03:00 +19°C° 0 mm 1 mps 767 mmHg 53%
    04:00 +19°C° 0 mm 1 mps 767 mmHg 51%
    05:00 +19°C° 0 mm 1 mps 767 mmHg 49%
    06:00 +19°C° 0 mm 1 mps 767 mmHg 48%
    07:00 +19°C° 0 mm 1 mps 767 mmHg 46%
    08:00 +21°C° 0 mm 1 mps 767 mmHg 41%
    09:00 +23°C° 0 mm 1 mps 767 mmHg 35%
    10:00 +24°C° 0 mm 0 mps 767 mmHg 30%
    11:00 +27°C° 0 mm 1 mps 767 mmHg 27%
    12:00 +28°C° 0 mm 1 mps 766 mmHg 25%
    13:00 +29°C° 0 mm 2 mps 766 mmHg 23%
    14:00 +28°C° 0 mm 2 mps 766 mmHg 26%
    15:00 +28°C° 0 mm 2 mps 765 mmHg 29%
    16:00 +27°C° 0 mm 3 mps 765 mmHg 32%
    17:00 +25°C° 0 mm 2 mps 765 mmHg 39%
    18:00 +23°C° 0 mm 2 mps 765 mmHg 46%
    19:00 +20°C° 0 mm 2 mps 765 mmHg 53%
    20:00 +20°C° 0 mm 2 mps 765 mmHg 55%
    21:00 +20°C° 0 mm 2 mps 765 mmHg 56%
    22:00 +19°C° 0 mm 3 mps 765 mmHg 58%
    23:00 +19°C° 0 mm 3 mps 765 mmHg 57%

    28 October, Saturday

    Time Temperature Precipitation Wind Pressure Humidity
    00:00 +19°C° 0 mm 4 mps 764 mmHg 56%
    01:00 +19°C° 0 mm 4 mps 764 mmHg 55%
    02:00 +17°C° 0 mm 5 mps 764 mmHg 54%
    03:00 +17°C° 0 mm 5 mps 763 mmHg 54%
    04:00 +17°C° 0 mm 5 mps 763 mmHg 53%
    05:00 +17°C° 0 mm 5 mps 763 mmHg 53%
    06:00 +17°C° 0 mm 5 mps 763 mmHg 54%
    07:00 +17°C° 0 mm 5 mps 763 mmHg 54%
    08:00 +19°C° 0 mm 6 mps 763 mmHg 58%
    09:00 +21°C° 0 mm 6 mps 763 mmHg 63%
    10:00 +22°C° 0 mm 7 mps 763 mmHg 68%
    11:00 +23°C° 0 mm 7 mps 762 mmHg 66%
    12:00 +23°C° 0 mm 8 mps 762 mmHg 64%
    13:00 +24°C° 0 mm 8 mps 762 mmHg 63%
    14:00 +24°C° 0 mm 9 mps 761 mmHg 63%
    15:00 +24°C° 0 mm 9 mps 761 mmHg 62%
    16:00 +23°C° 0 mm 9 mps 761 mmHg 62%
    17:00 +22°C° 0 mm 9 mps 761 mmHg 68%
    18:00 +21°C° 0 mm 8 mps 761 mmHg 73%
    19:00 +20°C° 0 mm 8 mps 762 mmHg 79%
    20:00 +20°C° 0 mm 7 mps 762 mmHg 79%
    21:00 +18°C° 0 mm 7 mps 762 mmHg 78%
    22:00 +18°C° 0 mm 7 mps 762 mmHg 78%
    23:00 +19°C° 0 mm 6 mps 762 mmHg 78%

    29 October, Sunday

    Time Temperature Precipitation Wind Pressure Humidity
    00:00 +17°C° 0 mm 6 mps 762 mmHg 78%
    01:00 +17°C° 0 mm 6 mps 762 mmHg 79%
    02:00 +17°C° 0 mm 5 mps 762 mmHg 79%
    03:00 +17°C° 0 mm 5 mps 762 mmHg 79%
    04:00 +16°C° 0 mm 5 mps 763 mmHg 79%
    05:00 +16°C° 0 mm 5 mps 763 mmHg 79%
    06:00 +16°C° 0 mm 5 mps 763 mmHg 78%
    07:00 +16°C° 0 mm 5 mps 763 mmHg 78%
    08:00 +19°C° 0 mm 5 mps 764 mmHg 72%
    09:00 +20°C° 0 mm 5 mps 764 mmHg 66%
    10:00 +21°C° 0 mm 5 mps 764 mmHg 60%
    11:00 +22°C° 0 mm 5 mps 764 mmHg 56%
    12:00 +22°C° 0 mm 5 mps 763 mmHg 52%
    13:00 +23°C° 0 mm 5 mps 763 mmHg 48%
    14:00 +23°C° 0 mm 5 mps 763 mmHg 48%
    15:00 +23°C° 0 mm 5 mps 763 mmHg 49%
    16:00 +22°C° 0 mm 5 mps 762 mmHg 49%
    17:00 +21°C° 0 mm 5 mps 763 mmHg 54%
    18:00 +20°C° 0 mm 5 mps 763 mmHg 59%
    19:00 +19°C° 0 mm 5 mps 763 mmHg 64%
    20:00 +19°C° 0 mm 5 mps 763 mmHg 65%
    21:00 +19°C° 0 mm 5 mps 763 mmHg 65%
    22:00 +17°C° 0 mm 6 mps 763 mmHg 66%
    23:00 +17°C° 0 mm 6 mps 763 mmHg 66%
    Show more